Portada
METAR-TAF:

METAR-TAF

Aeropuertos :

Corrientes, Argentina

Aeropuerto Internacional Doctor Fernando Piragine Niveyro

latitud: 27-27S, longitud: 058-46W, altitud: 62 m

Observación

El informe se hizo hace 58 minutos, a las 19:00 UTC
Viento 7 kt del noreste
Temperatura 29°C
Humedad 25%
Presión 1010 hPa
Visibilidad 10 km o más
sin nubes por debajo de 1500 m y sin presencia de cumulonimbus.

METAR: SARC 191900Z 05007KT CAVOK 29/07 Q1010

Hora: 16:58 (19:58 UTC)


TAF: falta

Observaciones y pronósticos meteorológicos de más de 4000 aeropuertos (mensajes METAR y TAF).

Los puntos amarillos y rojos representan las estaciones disponibles.

Ponga el ratón en el punto deseado para ver el nombre de la estación.

Haga clic para ver las observaciones y los pronósticos meteorológicos.

Para cambiar el mapa : haga clic en los botones verdes con una cruz de color negro para hacer un zoom, en el botón verde con un guión para alejar o en las flechas verdes para mapas adyacentes.


METAR-TAF: